NOAA 16 DEB, 41233

Orbit data source: Space-Track

NOAA 16 DEB, 41233 is space debris in SSO originally from a launch on Thu, 21 Sep 2000 UTC launched from the Air Force Western Test Range (AFWTR). Debris objects in space refer to the collection of defunct objects orbiting the Earth. Examples of debris include non-operational satellites, rocket bodies, and fragments generated from explosions, collisions, or faulty payload assembly.

Loading next visibility...
Identifier
41233, 2000-055EN
Orbit
SSO
Country
Flag of USUS
Related business
Manufacturer
Unknown
Mission
Spacecraft
Bus & Motor
Unknown
Mass
Unknown
Launch date (UTC)
2000-09-21 (25 years ago)
Launch vehicle
Unknown
Launch site
Air Force Western Test Range (AFWTR)
Object type
Payload
Rocket body
Debris
Shape & HBR
Unknown shape, 0.1 m
Radar Cross Section
Small (<0.1 m²)

Expand to show TLE details & history
Last TLE update: 14 hours ago

TLE from 14 hours ago
0 NOAA 16 DEB
1 41233U 00055EN  26034.03678869  .00003279  00000-0  15327-2 0  9996
2 41233  98.6985  74.2860 0040815 167.2709 192.9508 14.20542988522104
Epoch: 2026-02-03T00:52Z
TLE epoch observation values (Epoch: 2026-02-03T00:52:58.542Z)
Latitude
-0.00005°
Longitude
-72.1814°
Altitude
855.09 km
Speed
7.41 km/s
True Right ascension
04h 57m 08s
True Declination
0° 00' 00"
Sunlit
Object was in daylight at epoch
Visualization orbit readout
Latitude
Unknown
Longitude
Unknown
Altitude
Unknown
Speed
Unknown
Apparent Right ascension
Unknown
Apparent Declination
Unknown
Sunlit
N/A
Visualization observer readout
Local Sidereal Time
16:47:01
Azimuth
Unknown
Elevation
Unknown
Doppler factor
Unknown
Orbital elements
Apogee altitude
850.056 km
Perigee altitude
791.292 km
Semi-major axis
7,198.811 km
Eccentricity
0.00408
Inclination
98.6985°
RAAN
74.286°
Arg. of periapsis
167.2709°
True anomaly
192.8465°
Mean anomaly
192.9508°
Eccentric anomaly
192.8986°
Mean motion
3.55346 °/min
Orbital period
101.31 mins
BSTAR
0.0015327
Loading maneuver chart data...
Computing Atmospheric mass density...
Loading historical data...
Loading historical data...
Loading historical data...
Loading historical data...
Loading historical data...
Loading historical data...
Loading historical data...

Documentation

Showing up to 5 results
|